This is the latest recevied weather packets stored in our database for station/object N0QV. If no packets are shown the sender has not sent any weather packets the latest 10 day(s).
| Time | Temp. | Humidity | Pressure | Rain* | Wind** | Luminosity | Snow |
|---|---|---|---|---|---|---|---|
| 1777406713 | 12.22° C | 44% | 1017.5 hPa | 0 mm | - | 348 W/m² | - |
| 1777406409 | 12.22° C | 44% | 1017.3 hPa | 0 mm | - | 315 W/m² | - |
| 1777406108 | 12.22° C | 46% | 1017.1 hPa | 0 mm | - | 303 W/m² | - |
| 1777405804 | 12.22° C | 44% | 1017.3 hPa | 0 mm | - | 314 W/m² | - |
| 1777405500 | 12.22° C | 47% | 1017.2 hPa | 0 mm | - | 374 W/m² | - |
| 1777405198 | 12.22° C | 45% | 1017.5 hPa | 0 mm | - | 379 W/m² | - |
| 1777404895 | 12.22° C | 44% | 1017.2 hPa | 0 mm | - | 328 W/m² | - |
| 1777404592 | 12.22° C | 46% | 1017 hPa | 0 mm | - | 471 W/m² | - |
| 1777404289 | 11.67° C | 48% | 1016.9 hPa | 0 mm | - | 393 W/m² | - |
| 1777403985 | 12.22° C | 46% | 1016.8 hPa | 0 mm | - | 445 W/m² | - |
| 1777403680 | 12.22° C | 46% | 1016.8 hPa | 0 mm | - | 495 W/m² | - |
| 1777403379 | 12.22° C | 48% | 1016.9 hPa | 0 mm | - | 361 W/m² | - |
| 1777403073 | 12.22° C | 47% | 1016.9 hPa | 0 mm | - | 405 W/m² | - |
| 1777402769 | 12.22° C | 46% | 1017.2 hPa | 0 mm | - | 376 W/m² | - |
| 1777402466 | 11.67° C | 46% | 1016.8 hPa | 0 mm | - | 355 W/m² | - |
| 1777402164 | 11.67° C | 46% | 1016.8 hPa | 0 mm | - | 380 W/m² | - |
| 1777401859 | 12.22° C | 46% | 1016.9 hPa | 0 mm | - | 423 W/m² | - |
| 1777401558 | 12.22° C | 48% | 1016.9 hPa | 0 mm | - | 674 W/m² | - |
| 1777401254 | 11.67° C | 49% | 1016.6 hPa | 0 mm | - | 684 W/m² | - |
| 1777400950 | 12.22° C | 50% | 1016.9 hPa | 0 mm | - | 405 W/m² | - |
| 1777400646 | 12.78° C | 48% | 1017 hPa | 0 mm | - | 708 W/m² | - |
| 1777400344 | 12.78° C | 51% | 1016.9 hPa | 0 mm | - | 681 W/m² | - |
| 1777400039 | 11.67° C | 51% | 1016.9 hPa | 0 mm | - | 682 W/m² | - |
| 1777399737 | 12.22° C | 50% | 1017.2 hPa | 0 mm | - | 508 W/m² | - |
| 1777399433 | 11.67° C | 52% | 1017.1 hPa | 0 mm | - | 462 W/m² | - |
* Rain latest hour (hover to see other rain measurements)
** Current wind speed in m/s (hover to see current wind gust speed)